Home   Weather   Sweden   Lund   Past weeks
Flag for Sweden

Past Weather in Lund, Sweden — Yesterday and Last 2 Weeks

Currently: 41 °F. Sunny. (Weather station: Malmo / Sturup, Sweden). See more current weather

Past Weather in Lund — Graph

°F

Lund Temperature Yesterday

Maximum temperature yesterday: 48 °F (at 12:20 am)
Minimum temperature yesterday: 37 °F (at 10:20 pm)
Average temperature yesterday: 42 °F

High & Low Weather Summary for the Past Weeks

 TemperatureHumidityPressure
High48 °F (Mar 2, 9:50 pm)100% (Feb 18, 3:50 pm)30.21 "Hg (Feb 18, 3:50 pm)
Low27 °F (Feb 27, 5:20 am)57% (Mar 4, 1:50 pm)28.82 "Hg (Feb 23, 2:50 am)
Average40 °F91%29.78 "Hg
* Reported Feb 18 3:20 pm — Mar 4 3:50 pm, Lund. Weather by CustomWeather, © 2024

Note: Actual official high and low records may vary slightly from our data, if they occured in-between our weather recording intervals... More about our weather records

Lund Weather History for the Previous 24 Hours

Scroll right to see more
 ConditionsComfort  
Time TempWeatherWind HumidityBarometerVisibility
3:50 pm
Mon, Mar 4
43 °FSunny.20 mph57%30.01 "Hg10 mi
3:20 pm43 °FSunny.22 mph57%30.01 "Hg10 mi
2:50 pm43 °FSunny.26 mph61%30.01 "Hg10 mi
2:20 pm45 °FSunny.24 mph61%30.01 "Hg10 mi
1:50 pm45 °FSunny.23 mph57%30.01 "Hg10 mi
12:50 pm43 °FSunny.21 mph66%30.01 "Hg10 mi
12:20 pm43 °FSunny.21 mph71%30.01 "Hg10 mi
11:50 am43 °FSunny.23 mph71%29.98 "Hg10 mi
11:20 am43 °FSunny.21 mph76%29.98 "Hg10 mi
10:50 am41 °FPassing clouds.17 mph81%29.98 "Hg6 mi
10:20 am41 °FPartly sunny.20 mph81%29.98 "HgN/A
9:50 am41 °FScattered clouds.16 mph81%29.95 "HgN/A
9:20 am41 °FBroken clouds.15 mph81%29.95 "HgN/A
8:50 am39 °FScattered clouds.17 mph93%29.95 "HgN/A
8:20 am39 °FScattered clouds.16 mph87%29.92 "HgN/A
7:50 am39 °FBroken clouds.14 mph87%29.92 "Hg6 mi
7:20 am37 °FPartly sunny.14 mph93%29.92 "Hg6 mi
6:50 am39 °FPartly sunny.16 mph93%29.92 "Hg4 mi
6:20 am37 °FLow clouds.15 mph100%29.89 "Hg4 mi
5:50 am39 °FFog.15 mph93%29.89 "Hg4 mi
5:20 am39 °FLow clouds.13 mph93%29.89 "Hg4 mi
4:50 am37 °FFog.12 mph100%29.86 "Hg3 mi
4:20 am37 °FFog.13 mph93%29.86 "Hg3 mi
3:50 am37 °FFog.12 mph100%29.86 "Hg4 mi
3:20 am39 °FFog.12 mph93%29.86 "Hg4 mi
2:50 am39 °FClear.14 mph93%29.86 "Hg6 mi
2:20 am37 °FClear.12 mph93%29.86 "Hg6 mi
1:50 am37 °FClear.8 mph93%29.86 "Hg10 mi
1:20 am37 °FClear.9 mph93%29.83 "Hg10 mi
12:50 am37 °FClear.10 mph93%29.83 "Hg10 mi
12:20 am37 °FClear.12 mph93%29.83 "Hg10 mi
11:50 pm
Sun, Mar 3
39 °FClear.13 mph87%29.83 "Hg10 mi
11:20 pm39 °FPassing clouds.13 mph93%29.83 "Hg6 mi
10:20 pm37 °FClear.12 mph93%29.83 "Hg6 mi
9:50 pm39 °FClear.14 mph87%29.83 "Hg6 mi
8:50 pm39 °FClear.16 mph87%29.83 "Hg10 mi
8:20 pm39 °FClear.15 mph87%29.83 "Hg10 mi
7:50 pm39 °FClear.15 mph87%29.83 "Hg6 mi
6:50 pm41 °FClear.16 mph87%29.83 "Hg10 mi
6:20 pm41 °FClear.16 mph87%29.80 "Hg10 mi
5:50 pm41 °FClear.15 mph87%29.80 "Hg6 mi
5:20 pm43 °FSunny.18 mph81%29.80 "Hg10 mi
Weather by CustomWeather, © 2024

See weather overview